• In Germany
  • List of Countries
  • For 7 days
  • Water Temperature
  • Satellite Maps
  • Weather Map
  • Weather Widgets
  • user-avatar
    Login

    Hourly Weather Darwin

    Today, 27 April, Thursday

    Time Temperature Precipitation Wind Pressure Humidity
    00:00 +28°C° 0.1 mm 8 mps 757 mmHg 78%
    01:00 +27°C° 0.1 mm 8 mps 757 mmHg 78%
    02:00 +27°C° 0.1 mm 8 mps 757 mmHg 78%
    03:00 +27°C° 0 mm 6 mps 756 mmHg 81%
    04:00 +26°C° 1.1 mm 6 mps 757 mmHg 83%
    05:00 +26°C° 1.1 mm 7 mps 757 mmHg 84%
    06:00 +26°C° 1.1 mm 7 mps 757 mmHg 86%
    07:00 +24°C° 3 mm 8 mps 757 mmHg 87%
    08:00 +24°C° 3 mm 9 mps 757 mmHg 89%
    09:00 +26°C° 0 mm 7 mps 758 mmHg 89%
    10:00 +26°C° 0.8 mm 8 mps 758 mmHg 88%
    11:00 +27°C° 0.8 mm 9 mps 758 mmHg 87%
    12:00 +28°C° 0.8 mm 9 mps 757 mmHg 86%
    13:00 +28°C° 0.6 mm 9 mps 757 mmHg 87%
    14:00 +27°C° 0.6 mm 9 mps 757 mmHg 88%
    15:00 +27°C° 0.6 mm 8 mps 757 mmHg 89%
    16:00 +27°C° 0.8 mm 8 mps 757 mmHg 89%
    17:00 +27°C° 0.8 mm 8 mps 757 mmHg 90%
    18:00 +26°C° 0.8 mm 8 mps 757 mmHg 90%
    19:00 +26°C° 0.7 mm 8 mps 758 mmHg 89%
    20:00 +26°C° 0.7 mm 9 mps 758 mmHg 88%
    21:00 +24°C° 0.7 mm 9 mps 759 mmHg 88%
    22:00 +24°C° 0.6 mm 8 mps 759 mmHg 87%
    23:00 +23°C° 0.6 mm 8 mps 759 mmHg 87%

    Tomorrow, 28 April, Friday

    Time Temperature Precipitation Wind Pressure Humidity
    00:00 +23°C° 0.6 mm 8 mps 759 mmHg 86%
    01:00 +23°C° 0.1 mm 8 mps 759 mmHg 84%
    02:00 +23°C° 0.1 mm 7 mps 758 mmHg 82%
    03:00 +23°C° 0.1 mm 7 mps 758 mmHg 80%
    04:00 +23°C° 0.1 mm 7 mps 758 mmHg 76%
    05:00 +23°C° 0.1 mm 7 mps 758 mmHg 72%
    06:00 +23°C° 0.1 mm 7 mps 758 mmHg 68%
    07:00 +24°C° 0 mm 8 mps 759 mmHg 64%
    08:00 +26°C° 0 mm 8 mps 759 mmHg 59%
    09:00 +27°C° 0 mm 8 mps 760 mmHg 55%
    10:00 +28°C° 0 mm 8 mps 760 mmHg 51%
    11:00 +29°C° 0 mm 7 mps 759 mmHg 47%
    12:00 +30°C° 0 mm 7 mps 759 mmHg 43%
    13:00 +32°C° 0.1 mm 6 mps 759 mmHg 43%
    14:00 +32°C° 0.1 mm 6 mps 758 mmHg 42%
    15:00 +33°C° 0.1 mm 5 mps 757 mmHg 42%
    16:00 +30°C° 0 mm 5 mps 758 mmHg 47%
    17:00 +29°C° 0 mm 4 mps 758 mmHg 52%
    18:00 +28°C° 0 mm 4 mps 758 mmHg 57%
    19:00 +27°C° 0 mm 4 mps 759 mmHg 56%
    20:00 +27°C° 0 mm 4 mps 759 mmHg 55%
    21:00 +26°C° 0 mm 4 mps 759 mmHg 54%
    22:00 +25°C° 0 mm 4 mps 759 mmHg 53%
    23:00 +25°C° 0 mm 5 mps 759 mmHg 52%

    Day after tomorrow, 29 April, Saturday

    Time Temperature Precipitation Wind Pressure Humidity
    00:00 +25°C° 0 mm 5 mps 759 mmHg 51%
    01:00 +23°C° 0 mm 5 mps 759 mmHg 50%
    02:00 +23°C° 0 mm 5 mps 759 mmHg 48%
    03:00 +23°C° 0 mm 5 mps 758 mmHg 47%
    04:00 +22°C° 0 mm 6 mps 758 mmHg 46%
    05:00 +22°C° 0 mm 6 mps 758 mmHg 46%
    06:00 +22°C° 0 mm 6 mps 759 mmHg 46%
    07:00 +23°C° 0 mm 6 mps 759 mmHg 46%
    08:00 +24°C° 0 mm 6 mps 759 mmHg 45%
    09:00 +26°C° 0 mm 7 mps 760 mmHg 44%
    10:00 +27°C° 0 mm 6 mps 760 mmHg 42%
    11:00 +29°C° 0 mm 6 mps 759 mmHg 40%
    12:00 +30°C° 0 mm 5 mps 759 mmHg 38%
    13:00 +32°C° 0 mm 4 mps 759 mmHg 38%
    14:00 +32°C° 0 mm 4 mps 758 mmHg 39%
    15:00 +33°C° 0 mm 3 mps 757 mmHg 40%
    16:00 +31°C° 0 mm 3 mps 758 mmHg 45%
    17:00 +29°C° 0 mm 3 mps 758 mmHg 51%
    18:00 +28°C° 0 mm 3 mps 758 mmHg 56%
    19:00 +27°C° 0 mm 3 mps 759 mmHg 55%
    20:00 +27°C° 0 mm 2 mps 759 mmHg 54%
    21:00 +26°C° 0 mm 2 mps 760 mmHg 54%
    22:00 +26°C° 0 mm 3 mps 760 mmHg 53%
    23:00 +25°C° 0 mm 3 mps 760 mmHg 53%

    30 April, Sunday

    Time Temperature Precipitation Wind Pressure Humidity
    00:00 +25°C° 0 mm 3 mps 760 mmHg 53%
    01:00 +25°C° 0 mm 3 mps 759 mmHg 53%
    02:00 +24°C° 0 mm 3 mps 759 mmHg 53%
    03:00 +24°C° 0 mm 3 mps 758 mmHg 53%
    04:00 +23°C° 0 mm 4 mps 758 mmHg 52%
    05:00 +23°C° 0 mm 4 mps 759 mmHg 52%
    06:00 +22°C° 0 mm 4 mps 759 mmHg 51%
    07:00 +25°C° 0 mm 4 mps 759 mmHg 52%
    08:00 +26°C° 0 mm 4 mps 760 mmHg 52%
    09:00 +27°C° 0 mm 4 mps 760 mmHg 52%
    10:00 +29°C° 0 mm 4 mps 760 mmHg 48%
    11:00 +31°C° 0 mm 3 mps 759 mmHg 44%
    12:00 +33°C° 0 mm 3 mps 759 mmHg 40%
    13:00 +34°C° 0 mm 3 mps 758 mmHg 40%
    14:00 +34°C° 0 mm 2 mps 758 mmHg 41%
    15:00 +35°C° 0 mm 2 mps 757 mmHg 41%
    16:00 +32°C° 0 mm 2 mps 757 mmHg 48%
    17:00 +30°C° 0 mm 2 mps 757 mmHg 55%
    18:00 +28°C° 0 mm 2 mps 758 mmHg 62%
    19:00 +28°C° 0 mm 1 mps 758 mmHg 62%
    20:00 +27°C° 0 mm 1 mps 759 mmHg 62%
    21:00 +26°C° 0 mm 1 mps 759 mmHg 62%
    22:00 +26°C° 0 mm 1 mps 759 mmHg 61%
    23:00 +26°C° 0 mm 1 mps 759 mmHg 59%

    1 May, Monday

    Time Temperature Precipitation Wind Pressure Humidity
    00:00 +26°C° 0 mm 1 mps 759 mmHg 57%
    01:00 +25°C° 0 mm 1 mps 759 mmHg 56%
    02:00 +25°C° 0 mm 2 mps 758 mmHg 54%
    03:00 +25°C° 0 mm 2 mps 758 mmHg 53%
    04:00 +25°C° 0 mm 2 mps 758 mmHg 53%
    05:00 +24°C° 0 mm 2 mps 758 mmHg 52%
    06:00 +24°C° 0 mm 3 mps 758 mmHg 51%
    07:00 +25°C° 0 mm 3 mps 759 mmHg 52%
    08:00 +27°C° 0 mm 3 mps 759 mmHg 52%
    09:00 +28°C° 0 mm 3 mps 759 mmHg 52%
    10:00 +30°C° 0 mm 3 mps 759 mmHg 49%
    11:00 +33°C° 0 mm 3 mps 759 mmHg 46%
    12:00 +34°C° 0 mm 3 mps 758 mmHg 43%
    13:00 +34°C° 0 mm 2 mps 758 mmHg 43%
    14:00 +35°C° 0 mm 2 mps 757 mmHg 43%
    15:00 +35°C° 0 mm 2 mps 757 mmHg 44%
    16:00 +32°C° 0 mm 2 mps 757 mmHg 52%
    17:00 +31°C° 0 mm 2 mps 757 mmHg 59%
    18:00 +29°C° 0 mm 2 mps 758 mmHg 67%
    19:00 +28°C° 0 mm 2 mps 758 mmHg 70%
    20:00 +27°C° 0 mm 1 mps 758 mmHg 73%
    21:00 +26°C° 0 mm 1 mps 759 mmHg 77%
    22:00 +26°C° 0 mm 1 mps 759 mmHg 77%
    23:00 +26°C° 0 mm 1 mps 758 mmHg 78%

    2 May, Tuesday

    Time Temperature Precipitation Wind Pressure Humidity
    00:00 +26°C° 0 mm 1 mps 758 mmHg 79%
    01:00 +26°C° 0.1 mm 1 mps 758 mmHg 78%
    02:00 +25°C° 0.1 mm 1 mps 757 mmHg 78%
    03:00 +25°C° 0.1 mm 2 mps 757 mmHg 78%
    04:00 +25°C° 0 mm 1 mps 758 mmHg 77%
    05:00 +25°C° 0 mm 1 mps 758 mmHg 76%
    06:00 +24°C° 0 mm 1 mps 758 mmHg 75%
    07:00 +26°C° 0 mm 1 mps 758 mmHg 68%
    08:00 +28°C° 0 mm 1 mps 759 mmHg 62%
    09:00 +30°C° 0 mm 1 mps 759 mmHg 56%
    10:00 +32°C° 0 mm 1 mps 759 mmHg 50%
    11:00 +34°C° 0 mm 1 mps 758 mmHg 45%
    12:00 +33°C° 0 mm 0 mps 758 mmHg 39%
    13:00 +35°C° 0 mm 1 mps 757 mmHg 39%
    14:00 +35°C° 0 mm 1 mps 757 mmHg 40%
    15:00 +35°C° 0 mm 2 mps 756 mmHg 40%
    16:00 +34°C° 0 mm 2 mps 756 mmHg 49%
    17:00 +31°C° 0 mm 2 mps 757 mmHg 58%
    18:00 +29°C° 0 mm 2 mps 757 mmHg 67%
    19:00 +28°C° 0 mm 2 mps 758 mmHg 68%
    20:00 +28°C° 0 mm 2 mps 758 mmHg 69%
    21:00 +27°C° 0 mm 2 mps 758 mmHg 71%
    22:00 +27°C° 0 mm 2 mps 758 mmHg 71%
    23:00 +27°C° 0 mm 2 mps 758 mmHg 71%
    Show more